Weather reports worldwide

Advertisment
Ibiza/Es Codola, Spain (8373): temperature & dewpoint: 08.11.2018 13:00:00 - 14.11.2018 13:00:00 (CET)Ibiza/Es Codola, Spain (8373): wind speed: 08.11.2018 13:00:00 - 14.11.2018 13:00:00 (CET)Ibiza/Es Codola, Spain (8373): wind direction: 08.11.2018 13:00:00 - 14.11.2018 13:00:00 (CET)Ibiza/Es Codola, Spain (8373): reduced air pressure: 08.11.2018 13:00:00 - 14.11.2018 13:00:00 (CET)Ibiza/Es Codola, Spain (8373): visibility: 08.11.2018 13:00:00 - 14.11.2018 13:00:00 (CET)
Date & Time tt [°C] td [°C] ff [km/h] ff [kn] dd ppp [hPa] vv [km]
14.11.2018 13:00:00 18,6 15,4 16 9 ENE 1022,1 10
14.11.2018 12:00:00 18,7 14,5 16 9 E 1022,9 10
14.11.2018 11:00:00 18,6 13,9 18 10 ENE 1023,3 10
14.11.2018 10:00:00 18,1 13,4 11 6 ENE 1023,5 10
14.11.2018 09:00:00 15,1 11,9 5 3 N 1023,5 10
14.11.2018 08:00:00 13,3 10,2 4 2 - 1023,4 10
14.11.2018 07:00:00 12,6 10,3 5 3 N 1023,2 10
14.11.2018 06:00:00 13,2 10,9 4 2 - 1023,4 10
14.11.2018 05:00:00 13,3 11,1 9 5 N 1023,5 10
14.11.2018 04:00:00 13,5 11,3 8 4 NNW 1023,6 10
14.11.2018 03:00:00 14,6 12,3 5 3 N 1023,8 10
14.11.2018 02:00:00 15,6 13,3 9 5 NNE 1023,8 10
14.11.2018 01:00:00 16,2 13,7 13 7 NNE 1024,0 10
14.11.2018 00:00:00 14,8 12,3 8 4 NE 1024,1 10
13.11.2018 23:00:00 15,9 12,6 9 5 NE 1024,1 10
13.11.2018 22:00:00 16,5 13,0 9 5 NNE 1023,9 10
13.11.2018 21:00:00 14,9 12,2 9 5 NE 1023,8 10
13.11.2018 20:00:00 16,7 12,0 8 4 ENE 1023,8 10
13.11.2018 19:00:00 16,9 12,1 8 4 NNE 1023,4 10
13.11.2018 18:00:00 17,4 12,1 9 5 NNE 1023,0 10
13.11.2018 17:00:00 18,3 14,8 8 4 ENE 1022,9 10
13.11.2018 16:00:00 19,6 13,1 9 5 NE 1022,5 10
13.11.2018 15:00:00 20,2 14,4 15 8 ENE 1022,4 10
13.11.2018 14:00:00 19,7 14,6 15 8 E 1022,5 10
13.11.2018 13:00:00 20,1 14,3 13 7 ENE 1022,6 20
13.11.2018 12:00:00 20,2 14,6 11 6 NE 1022,8 10
13.11.2018 11:00:00 19,7 14,3 13 7 NE 1023,0 10
13.11.2018 10:00:00 19,2 15,0 9 5 NE 1022,4 10
13.11.2018 09:00:00 15,4 12,7 2 1 - 1022,1 10
13.11.2018 08:00:00 14,1 11,5 0 0 N 1021,1 10
13.11.2018 07:00:00 14,3 11,3 2 1 - 1020,6 10
13.11.2018 06:00:00 14,0 11,3 4 2 N 1020,2 10
13.11.2018 05:00:00 13,8 11,0 2 1 - 1019,9 10
13.11.2018 04:00:00 13,8 11,4 4 2 N 1019,7 10
13.11.2018 03:00:00 14,1 12,1 2 1 NW 1019,7 10
13.11.2018 02:00:00 15,2 13,3 4 2 - 1019,7 10
13.11.2018 01:00:00 15,3 13,4 5 3 NNW 1019,6 10
13.11.2018 00:00:00 16,2 14,3 2 1 - 1019,3 4,0
12.11.2018 23:00:00 16,0 14,0 4 2 - 1019,2 0,2
12.11.2018 22:00:00 16,2 13,9 5 3 N 1018,7 2,0
12.11.2018 21:00:00 15,9 13,6 5 3 N 1018,4 3,0
12.11.2018 20:00:00 15,4 12,9 5 3 NNW 1018,3 8
12.11.2018 19:00:00 16,2 13,5 4 2 - 1017,6 10
12.11.2018 18:00:00 17,7 14,9 5 3 SW 1016,9 10
12.11.2018 17:00:00 18,9 15,0 5 3 SW 1016,4 10
12.11.2018 16:00:00 19,2 15,6 9 5 SSW 1016,1 20
12.11.2018 15:00:00 20,4 15,4 9 5 SSW 1015,9 10
12.11.2018 14:00:00 21,5 13,3 9 5 E 1015,7 10
12.11.2018 13:00:00 20,5 14,5 11 6 ENE 1015,6 16
12.11.2018 12:00:00 20,1 14,7 9 5 E 1016,4 10
12.11.2018 11:00:00 19,9 15,3 11 6 E 1016,3 10
12.11.2018 10:00:00 19,1 14,8 15 8 NE 1015,6 15
12.11.2018 09:00:00 16,6 13,9 11 6 NE 1015,7 10
12.11.2018 08:00:00 14,5 11,9 8 4 NNE 1015,5 10
12.11.2018 07:00:00 16,2 13,3 9 5 NNE 1014,9 10
12.11.2018 06:00:00 15,4 12,8 9 5 NNE 1014,5 10
12.11.2018 05:00:00 17,4 14,1 15 8 E 1014,3 10
12.11.2018 04:00:00 16,8 13,3 11 6 ENE 1014,6 10
12.11.2018 03:00:00 17,0 13,1 13 7 ENE 1014,9 10
12.11.2018 02:00:00 16,9 13,2 11 6 ENE 1015,2 10
12.11.2018 01:00:00 15,7 12,8 9 5 ENE 1015,6 10
12.11.2018 00:00:00 17,1 13,8 9 5 E 1016,1 10
11.11.2018 23:00:00 16,7 13,2 8 4 E 1016,1 10
11.11.2018 22:00:00 17,1 13,7 9 5 ESE 1016,1 10
11.11.2018 21:00:00 16,7 13,4 2 1 - 1016,0 10
11.11.2018 20:00:00 17,0 13,3 5 3 SE 1016,0 10
11.11.2018 19:00:00 17,2 12,9 13 7 S 1015,7 10
11.11.2018 18:00:00 17,5 12,8 13 7 S 1015,6 10
11.11.2018 17:00:00 18,1 13,8 15 8 S 1015,8 10
11.11.2018 16:00:00 18,9 14,2 15 8 SSW 1015,7 10
11.11.2018 15:00:00 19,4 14,8 13 7 SSW 1015,9 10
11.11.2018 14:00:00 19,6 15,3 13 7 SSW 1016,4 10
11.11.2018 13:00:00 19,6 15,9 16 9 SW 1016,9 10
11.11.2018 12:00:00 19,5 15,7 16 9 SSW 1017,7 10
11.11.2018 11:00:00 19,6 15,5 15 8 SW 1017,9 10
11.11.2018 10:00:00 19,1 14,8 13 7 SSW 1017,6 10
11.11.2018 09:00:00 18,2 13,4 9 5 SSW 1017,1 10
11.11.2018 08:00:00 15,0 9,9 4 2 - 1016,5 10
11.11.2018 07:00:00 16,7 9,4 11 6 W 1015,8 25
11.11.2018 06:00:00 16,2 9,6 11 6 W 1015,4 10
11.11.2018 05:00:00 15,6 9,9 4 2 W 1015,6 10
11.11.2018 04:00:00 14,6 11,2 5 3 - 1015,6 10
11.11.2018 03:00:00 16,7 13,1 13 7 W 1015,5 10
11.11.2018 02:00:00 17,1 13,6 11 6 SW 1015,6 10
11.11.2018 01:00:00 17,2 13,5 15 8 WSW 1015,6 10
11.11.2018 00:00:00 17,5 13,6 22 12 SW 1015,6 10
10.11.2018 23:00:00 17,4 13,9 21 11 SW 1015,6 10
10.11.2018 22:00:00 17,5 13,2 28 15 SW 1015,8 10
10.11.2018 21:00:00 17,6 13,2 24 13 SW 1015,3 10
10.11.2018 20:00:00 17,4 12,8 18 10 SW 1015,3 10
10.11.2018 19:00:00 17,2 11,4 15 8 SW 1015,2 10
10.11.2018 18:00:00 17,0 10,5 16 9 WSW 1014,9 10
10.11.2018 17:00:00 18,2 11,1 13 7 SW 1014,6 10
10.11.2018 16:00:00 18,7 9,3 22 12 WSW 1014,7 30
10.11.2018 15:00:00 19,0 10,5 24 13 WSW 1014,7 10
10.11.2018 14:00:00 19,0 11,2 21 11 SW 1014,7 10
10.11.2018 13:00:00 18,5 10,4 21 11 SW 1015,3 10
10.11.2018 12:00:00 19,4 9,4 15 8 SW 1016,3 10
10.11.2018 11:00:00 18,5 8,5 16 9 SW 1016,6 10
10.11.2018 10:00:00 18,1 8,5 24 13 WSW 1016,9 20
10.11.2018 09:00:00 17,4 7,5 28 15 W 1016,5 10
10.11.2018 08:00:00 15,9 7,6 18 10 W 1016,2 10
10.11.2018 07:00:00 15,9 7,4 18 10 W 1015,9 10
10.11.2018 06:00:00 15,6 7,4 22 12 WNW 1015,9 10
10.11.2018 05:00:00 15,4 7,4 15 8 WNW 1016,4 10
10.11.2018 04:00:00 14,5 7,1 11 6 W 1016,6 10
10.11.2018 03:00:00 13,8 7,4 5 3 SSW 1016,7 10
10.11.2018 02:00:00 14,5 7,4 9 5 SW 1016,6 10
10.11.2018 01:00:00 14,3 6,6 11 6 NW 1016,8 10
10.11.2018 00:00:00 14,6 6,1 15 8 W 1017,3 10
09.11.2018 23:00:00 14,5 6,6 15 8 W 1017,4 10
09.11.2018 22:00:00 15,9 6,0 22 12 W 1017,3 10
09.11.2018 21:00:00 15,4 5,7 15 8 WNW 1016,9 10
09.11.2018 20:00:00 15,8 5,2 16 9 W 1016,9 10
09.11.2018 19:00:00 13,3 6,4 9 5 WNW 1016,4 10
09.11.2018 18:00:00 15,0 5,8 9 5 W 1015,8 10
09.11.2018 17:00:00 16,2 5,5 11 6 W 1015,2 10
09.11.2018 16:00:00 16,7 6,1 15 8 WNW 1015,2 20
09.11.2018 15:00:00 15,6 7,0 15 8 W 1014,8 10
09.11.2018 14:00:00 12,8 9,2 4 2 - 1015,1 10
09.11.2018 13:00:00 11,8 7,7 11 6 W 1015,4 3,0
09.11.2018 12:00:00 13,5 8,8 21 11 N 1015,3 10
09.11.2018 11:00:00 16,6 7,5 28 15 W 1014,7 10
09.11.2018 10:00:00 15,6 6,2 29 16 W 1014,7 30
09.11.2018 09:00:00 14,5 6,1 28 15 W 1014,5 10
09.11.2018 08:00:00 14,0 7,5 28 15 WNW 1013,0 10
09.11.2018 07:00:00 15,8 6,8 31 17 W 1014,0 10
09.11.2018 06:00:00 15,2 8,0 18 10 W 1012,9 10
09.11.2018 05:00:00 15,8 9,7 22 12 W 1013,3 -
09.11.2018 04:00:00 15,7 11,0 21 11 W 1013,4 10
09.11.2018 03:00:00 17,5 12,6 29 16 SSW 1013,2 10
09.11.2018 02:00:00 17,0 12,1 21 11 S 1013,8 10
09.11.2018 01:00:00 16,4 11,3 11 6 S 1014,3 -
09.11.2018 00:00:00 15,8 12,2 11 6 SSW 1015,3 10
08.11.2018 23:00:00 12,8 9,9 5 3 SE 1015,6 10
08.11.2018 22:00:00 13,1 10,0 2 1 - 1016,1 10
08.11.2018 21:00:00 15,0 11,0 8 4 SSE 1016,3 10
08.11.2018 20:00:00 15,5 11,1 8 4 SSE 1016,4 10
08.11.2018 19:00:00 16,2 11,4 11 6 SE 1016,2 2,0
08.11.2018 18:00:00 17,4 11,7 11 6 SSE 1016,0 10
08.11.2018 17:00:00 17,7 11,3 11 6 S 1016,5 10
08.11.2018 16:00:00 18,9 11,7 9 5 S 1017,2 10
08.11.2018 15:00:00 19,2 11,7 11 6 S 1017,5 10
08.11.2018 14:00:00 19,3 11,8 13 7 S 1018,3 10
08.11.2018 13:00:00 19,6 12,4 13 7 S 1018,9 10

tt = temperature
td = dewpoint
ff = wind speed
dd = wind direction
ppp = reduced air pressure
vv = visibility

Next stations